Voltar ao catálogo

COSMOS 2251 DEB

AtivoLEO
NORAD 38479·DEBRIS·🇷🇺 Russia

Lançado Jun 16, 1993 de Plesetsk Cosmodrome

Loading…

Próximas Passagens (próximas 24 horas)

TLE

EnvelhecendoSource: Space-Track

Época: Sep 10, 2026, 03:36 UTC

1 38479U 93036BTP 26253.15042501  .00002883  00000-0  87699-3 0  9991
2 38479  74.0119  42.0800 0083006  85.7156  89.2750 14.40543511685938

Acompanhe COSMOS 2251 DEB em tempo real com AllMySat

Download on the App Store